1531206000.38,4128,18.88,74084.0,7.05,4.97,5.01,0,*4E
1531206001.56,4129,18.88,74086.5,7.05,5.07,5.19,0,*4E
1531206002.76,4130,18.88,74084.3,7.05,4.97,5.07,0,*41
1531206004.0,4131,18.88,74084.3,7.03,5.01,5.11,0,*4F
1531206005.19,4132,18.88,74086.8,7.03,5.19,5.29,0,*4E
1531206006.37,4133,18.88,74088.8,7.05,5.23,5.33,0,*4B
1531206007.54,4134,18.88,74086.8,7.05,5.23,5.33,0,*4C
1531206008.74,4135,18.88,74090.0,7.07,5.23,5.37,0,*4B
1531206009.94,4136,18.88,74086.0,7.07,5.23,5.33,0,*4C
1531206011.16,4137,18.88,74088.5,7.07,5.11,5.27,0,*49
1531206012.39,4138,18.88,74086.8,7.07,5.11,5.27,0,*46
1531206013.58,4139,18.88,74090.0,7.07,5.15,5.37,0,*42
1531206014.75,4140,18.88,74086.0,7.09,5.23,5.45,0,*42
1531206015.95,4141,18.88,74088.3,7.07,5.11,5.33,0,*4D
1531206017.17,4142,18.88,74088.8,7.07,5.11,5.27,0,*4B
1531206018.41,4143,18.88,74086.0,7.07,5.01,5.23,0,*4F
1531206019.63,4144,18.88,74084.8,7.07,4.75,4.89,0,*4B
1531206020.8,4145,18.88,74086.3,7.09,4.57,4.85,0,*48
1531206022.02,4146,18.88,74088.5,7.07,4.63,4.89,0,*4E
1531206023.27,4147,18.88,74088.5,7.07,4.75,5.05,0,*4D
1531206024.44,4148,18.88,74090.8,7.09,4.89,5.15,0,*4E
1531206025.64,4149,18.88,74092.5,7.09,4.79,5.11,0,*44
1531206026.87,4150,18.88,74088.0,7.07,4.75,5.11,0,*4E
1531206028.07,4151,18.88,74092.0,7.09,4.79,5.15,0,*49
1531206029.3,4152,18.88,74088.0,7.07,4.57,5.05,0,*49
1531206030.49,4153,18.88,74088.5,7.09,4.45,4.93,0,*4B
1531206031.69,4154,18.88,74090.0,7.09,4.19,4.67,0,*4E
1531206032.92,4155,18.88,74090.3,7.11,4.27,4.67,0,*4B
1531206034.14,4156,18.88,74092.0,7.11,4.45,4.79,0,*43
1531206035.33,4157,18.88,74090.0,7.11,4.45,4.89,0,*4D
1531206036.5,4158,18.88,74092.8,7.13,4.41,4.85,0,*48
1531206037.73,4159,18.88,74090.5,7.11,4.27,4.71,0,*40
1531206038.95,4160,18.88,74088.8,7.11,4.11,4.59,0,*45
1531206040.15,4161,18.88,74092.3,7.13,4.27,4.67,0,*4E
1531206041.38,4162,18.88,74088.5,7.11,4.33,4.71,0,*4D
1531206042.56,4163,18.88,74086.5,7.11,4.49,4.89,0,*46
1531206043.76,4164,18.88,74086.8,7.13,4.49,4.75,0,*40
1531206044.96,4165,18.88,74092.3,7.13,4.59,4.81,0,*4B
1531206046.16,4166,18.88,74092.5,7.13,4.81,4.97,0,*4A
1531206047.38,4167,18.88,74090.3,7.13,4.75,4.75,0,*4C
1531206048.58,4168,18.88,74092.5,7.13,4.71,4.81,0,*4C
1531206049.82,4169,18.88,74092.8,7.15,4.53,4.71,0,*44
1531206051.05,4170,18.88,74092.8,7.15,4.59,4.85,0,*4D
1531206052.24,4171,18.88,74094.5,7.15,4.49,4.81,0,*49
1531206053.44,4172,18.88,74090.5,7.17,4.23,4.63,0,*48
1531206054.64,4173,18.88,74092.3,7.17,4.05,4.45,0,*49
1531206055.87,4174,18.88,74092.5,7.15,4.01,4.41,0,*4C
1531206057.07,4175,18.88,74092.5,7.17,4.05,4.45,0,*4F
1531206058.25,4176,18.88,74090.5,7.17,4.07,4.53,0,*49
1531206059.45,4177,18.88,74088.3,7.17,3.97,4.33,0,*40
1531206060.65,4178,18.88,74092.5,7.17,3.97,4.41,0,*4A
1531206061.82,4179,18.88,74088.8,7.17,4.23,4.53,0,*40
1531206063.02,4180,18.88,74090.3,7.17,4.31,4.57,0,*41
1531206064.25,4181,18.88,74092.3,7.19,4.23,4.63,0,*4A
1531206065.44,4182,18.88,74088.0,7.19,4.19,4.57,0,*47
1531206066.65,4183,18.88,74088.8,7.21,4.01,4.37,0,*42
1531206067.84,4184,18.88,74090.5,7.19,3.85,4.19,0,*49
1531206069.04,4185,18.88,74092.0,7.21,4.01,4.45,0,*41
1531206070.24,4186,18.88,74090.8,7.19,4.07,4.41,0,*4B
1531206071.44,4187,18.88,74090.0,7.19,4.15,4.53,0,*4A
1531206072.62,4188,18.88,74088.0,7.21,4.11,4.45,0,*4D
1531206073.82,4189,18.88,74088.8,7.21,4.01,4.45,0,*4D
1531206075.0,4190,18.88,74092.0,7.21,4.07,4.37,0,*46
1531206076.19,4191,18.88,74088.5,7.19,4.19,4.53,0,*41
1531206077.37,4192,18.88,74088.5,7.25,4.27,4.53,0,*40
1531206078.56,4193,18.88,74092.8,7.25,4.01,4.27,0,*46
1531206079.73,4194,18.88,74090.8,7.25,4.15,4.49,0,*4C
1531206080.9,4195,18.88,74088.8,7.25,4.15,4.49,0,*4D
1531206082.07,4196,18.88,74094.8,7.25,4.15,4.49,0,*4E
1531206083.24,4197,18.88,74098.0,7.25,4.15,4.27,0,*47
1531206084.42,4198,18.88,74094.3,7.25,3.89,4.15,0,*4B
1531206085.62,4199,18.88,74096.3,7.25,4.05,4.37,0,*49
1531206086.8,4200,18.88,74088.3,7.25,4.15,4.41,0,*4A
1531206087.97,4201,18.88,74088.0,7.25,4.15,4.49,0,*43
1531206089.17,4202,18.88,74088.5,7.27,4.27,4.49,0,*43
1531206090.37,4203,18.88,74090.8,7.25,4.31,4.53,0,*4C
1531206091.57,4204,18.88,74092.8,7.27,4.27,4.53,0,*4E
1531206092.77,4205,18.88,74096.5,7.27,4.23,4.53,0,*4B
1531206094.0,4206,18.88,74092.0,7.27,4.05,4.41,0,*4F
1531206095.21,4207,18.88,74090.5,7.27,4.15,4.37,0,*4E
1531206096.43,4208,18.88,74094.0,7.27,4.31,4.49,0,*4E
1531206097.65,4209,18.88,74090.5,7.27,4.49,4.71,0,*4B
1531206098.88,4210,18.88,74088.3,7.27,4.37,4.63,0,*49
1531206100.09,4211,18.88,74088.8,7.27,4.37,4.53,0,*4B
1531206101.29,4212,18.88,74094.8,7.29,4.31,4.57,0,*44
1531206102.49,4213,18.88,74088.3,7.27,4.11,4.49,0,*46
1531206103.69,4214,18.88,74086.5,7.27,3.89,4.23,0,*4B
1531206104.94,4215,18.88,74088.8,7.27,3.79,4.05,0,*41
1531206106.14,4216,18.88,74092.5,7.27,3.89,4.27,0,*4D
1531206107.37,4217,18.88,74090.8,7.27,4.05,4.41,0,*4F
1531206108.6,4218,18.88,74094.5,7.27,4.05,4.37,0,*41
1531206109.8,4219,18.88,74096.3,7.27,3.89,4.15,0,*43
1531206111.0,4220,18.88,74092.5,7.27,3.89,4.23,0,*4C
1531206112.22,4221,18.88,74092.0,7.27,3.81,4.05,0,*41
1531206113.42,4222,18.88,74092.0,7.27,3.55,3.81,0,*40
1531206114.62,4223,18.88,74092.8,7.27,3.59,3.81,0,*4D
1531206115.87,4224,18.88,74092.0,7.27,3.79,4.05,0,*43
1531206117.07,4225,18.88,74090.5,7.27,3.93,4.23,0,*42
1531206118.29,4226,18.88,74088.5,7.27,3.79,3.93,0,*49
1531206119.49,4227,18.88,74088.8,7.29,3.85,3.97,0,*41
1531206120.67,4228,18.88,74084.8,7.29,3.85,3.93,0,*4A
1531206121.85,4229,18.88,74090.8,7.29,4.27,4.41,0,*4C
1531206123.02,4230,18.88,74088.5,7.29,4.45,4.53,0,*43
1531206124.2,4231,18.88,74086.5,7.29,4.27,4.19,0,*48
1531206125.37,4232,18.88,74088.3,7.29,4.41,4.53,0,*45
1531206126.55,4233,18.88,74090.5,7.29,4.53,4.57,0,*43
1531206127.73,4234,18.88,74086.0,7.29,4.57,4.57,0,*40
1531206128.95,4235,18.88,74086.8,7.29,4.63,4.63,0,*41
1531206130.18,4236,18.88,74086.0,7.29,4.67,4.67,0,*42
1531206131.38,4237,18.88,74086.5,7.29,4.75,4.85,0,*4C
1531206132.61,4238,18.88,74090.0,7.31,4.97,5.07,0,*4D
1531206133.81,4239,18.88,74090.0,7.31,4.89,5.07,0,*43
1531206135.04,4240,18.88,74084.3,7.31,4.79,5.07,0,*42
1531206136.27,4241,18.88,74084.5,7.31,4.79,5.07,0,*43
1531206137.49,4242,18.88,74088.3,7.31,4.79,5.07,0,*40
1531206138.67,4243,18.88,74088.8,7.33,4.81,5.11,0,*43
1531206139.91,4244,18.88,74086.0,7.33,4.71,5.01,0,*4A
1531206141.14,4245,18.88,74088.3,7.35,4.93,5.15,0,*44
1531206142.32,4246,18.88,74088.3,7.37,4.85,5.19,0,*4E
1531206143.5,4247,18.88,74086.0,7.37,4.85,5.23,0,*46
1531206144.7,4248,18.88,74086.8,7.37,4.75,5.29,0,*4C
1531206145.9,4249,18.88,74086.3,7.37,4.93,5.33,0,*4E
1531206147.1,4250,18.88,74090.0,7.39,4.85,5.33,0,*4F
1531206148.35,4251,18.88,74088.5,7.39,4.79,5.27,0,*48
1531206149.58,4252,18.88,74088.5,7.39,4.63,5.19,0,*4D
1531206150.77,4253,18.88,74086.3,7.41,4.79,5.41,0,*45
1531206151.93,4254,18.88,74086.3,7.41,4.81,5.41,0,*45
1531206153.15,4255,18.88,74088.5,7.43,4.79,5.41,0,*41
1531206154.34,4256,18.88,74088.3,7.43,4.81,5.41,0,*45
1531206155.53,4257,18.88,74088.3,7.47,4.85,5.45,0,*40
1531206156.75,4258,18.88,74088.8,7.47,4.75,5.41,0,*44
1531206157.99,4259,18.88,74088.3,7.47,4.71,5.19,0,*4C
1531206159.21,4260,18.88,74086.8,7.49,4.49,5.05,0,*4E
1531206160.4,4261,18.88,74086.5,7.51,4.49,4.97,0,*4C
1531206161.61,4262,18.88,74086.8,7.49,4.53,5.07,0,*45
1531206162.85,4263,18.88,74088.5,7.49,4.37,5.05,0,*44
1531206164.07,4264,18.88,74088.3,7.49,4.53,5.27,0,*41
1531206165.25,4265,18.88,74088.5,7.51,4.49,5.19,0,*4F
1531206166.42,4266,18.88,74088.5,7.51,4.53,5.29,0,*44
1531206167.65,4267,18.88,74088.5,7.53,4.57,5.27,0,*4D
1531206168.85,4268,18.88,74090.0,7.53,4.53,5.15,0,*47
1531206170.04,4269,18.88,74090.5,7.51,4.37,5.11,0,*42
1531206171.24,4270,18.88,74090.0,7.53,4.57,5.33,0,*4E
1531206172.45,4271,18.88,74090.0,7.53,4.41,5.15,0,*4C
1531206173.67,4272,18.88,74090.0,7.53,4.45,5.27,0,*4A
1531206174.88,4273,18.88,74088.0,7.55,4.59,5.41,0,*40
1531206176.08,4274,18.88,74088.5,7.55,4.67,5.33,0,*4F
1531206177.27,4275,18.88,74090.3,7.57,4.49,5.29,0,*4B
1531206178.44,4276,18.88,74090.0,7.59,4.53,5.41,0,*43
1531206179.64,4277,18.88,74090.3,7.61,4.53,5.41,0,*49
1531206180.85,4278,18.88,74090.0,7.61,4.41,5.19,0,*48
1531206182.05,4279,18.88,74088.5,7.61,4.27,5.07,0,*46
1531206183.29,4280,18.88,74088.3,7.61,4.31,5.19,0,*48
1531206184.52,4281,18.88,74086.8,7.61,4.27,5.01,0,*47
1531206185.73,4282,18.88,74088.8,7.63,4.31,5.11,0,*40
1531206186.93,4283,18.88,74086.5,7.63,4.19,5.05,0,*4E
1531206188.1,4284,18.88,74086.0,7.63,4.19,5.15,0,*48
1531206189.27,4285,18.88,74086.5,7.63,4.23,5.15,0,*40
1531206190.5,4286,18.88,74084.5,7.65,4.11,5.01,0,*41
1531206191.71,4287,18.88,74088.0,7.63,4.11,5.01,0,*46
1531206192.91,4288,18.88,74086.8,7.67,4.23,5.05,0,*48
1531206194.07,4289,18.88,74088.5,7.67,3.85,4.81,0,*4F
1531206195.31,4290,18.88,74090.0,7.67,3.75,4.71,0,*47
1531206196.48,4291,18.88,74090.3,7.67,4.15,5.15,0,*44
1531206197.68,4292,18.88,74084.0,7.67,4.15,4.97,0,*4C
1531206198.86,4293,18.88,74090.5,7.71,4.53,5.33,0,*47
1531206200.06,4294,18.88,74090.8,7.67,4.37,5.01,0,*44
1531206201.27,4295,18.88,74086.8,7.71,4.31,5.11,0,*45
1531206202.45,4296,18.88,74088.8,7.71,4.37,5.23,0,*41
1531206203.62,4297,18.88,74084.3,7.71,4.41,5.29,0,*4B
1531206204.8,4298,18.88,74084.3,7.71,4.37,5.33,0,*4E
1531206205.99,4299,18.88,74086.0,7.73,4.41,5.33,0,*4C
1531206207.18,4300,18.88,74086.0,7.75,4.41,5.27,0,*4E
1531206208.35,4301,18.88,74084.0,7.75,4.41,5.15,0,*4E
1531206209.52,4302,18.88,74084.8,7.75,4.41,5.15,0,*4D
1531206210.7,4303,18.88,74088.0,7.75,4.33,5.07,0,*4A
1531206211.87,4304,18.88,74088.3,7.75,4.57,5.15,0,*4C
1531206213.06,4305,18.88,74084.3,7.75,4.75,5.37,0,*4D
1531206214.29,4306,18.88,74090.0,7.77,4.41,5.05,0,*4A
1531206215.49,4307,18.88,74084.5,7.77,4.57,5.15,0,*4D
1531206216.72,4308,18.88,74088.0,7.77,4.41,5.01,0,*40
1531206217.95,4309,18.88,74092.0,7.77,4.33,4.93,0,*4E
1531206219.18,4310,18.88,74088.3,7.77,4.41,5.01,0,*49
1531206220.41,4311,18.88,74088.5,7.77,4.41,5.01,0,*48
1531206221.61,4312,18.88,74088.5,7.79,4.33,5.05,0,*44
1531206222.86,4313,18.88,74082.8,7.77,3.97,4.79,0,*48
1531206224.09,4314,18.88,74084.5,7.77,4.33,5.27,0,*4C
1531206225.29,4315,18.88,74088.8,7.79,4.59,5.59,0,*46
1531206226.49,4316,18.88,74086.5,7.79,4.59,5.59,0,*45
1531206227.69,4317,18.88,74090.0,7.81,4.63,5.63,0,*43
1531206228.88,4318,18.88,74088.8,7.79,4.49,5.51,0,*42
1531206230.11,4319,18.88,74088.0,7.83,4.63,5.67,0,*4B
1531206231.34,4320,18.88,74086.3,7.83,4.59,5.67,0,*48
1531206232.55,4321,18.88,74088.0,7.83,4.49,5.55,0,*49
1531206233.75,4322,18.88,74086.3,7.83,4.27,5.41,0,*47
1531206234.95,4323,18.88,74088.3,7.83,4.27,5.41,0,*46
1531206236.15,4324,18.88,74084.8,7.87,4.19,5.49,0,*40
1531206237.38,4325,18.88,74086.3,7.87,3.93,5.27,0,*4C
1531206238.59,4326,18.88,74088.3,7.87,3.85,5.23,0,*4C
1531206239.81,4327,18.88,74088.3,7.89,3.67,5.07,0,*49
1531206241.03,4328,18.88,74086.3,7.87,3.53,4.85,0,*44
1531206242.24,4329,18.88,74086.5,7.87,3.81,5.11,0,*46
1531206243.45,4330,18.88,74086.5,7.87,3.85,5.23,0,*4B
1531206244.64,4331,18.88,74086.3,7.89,3.89,5.19,0,*41
1531206245.87,4332,18.88,74088.3,7.93,3.71,4.97,0,*49
1531206247.11,4333,18.88,74088.5,7.93,3.79,4.93,0,*44
1531206248.33,4334,18.88,74086.0,7.95,3.71,4.85,0,*4A
1531206249.53,4335,18.88,74084.8,7.95,3.81,4.89,0,*48
1531206250.76,4336,18.88,74090.0,7.95,3.89,4.93,0,*48
1531206251.97,4337,18.88,74090.0,7.95,4.11,5.11,0,*44
1531206253.16,4338,18.88,74086.5,7.97,4.27,5.23,0,*4D
1531206254.36,4339,18.88,74084.3,8.01,4.37,5.27,0,*49
1531206255.58,4340,18.88,74084.3,7.99,4.57,5.27,0,*4F
1531206256.81,4341,18.88,74090.0,7.99,4.53,5.27,0,*4A
1531206258.01,4342,18.88,74086.5,8.01,4.59,5.37,0,*4C
1531206259.21,4343,18.88,74090.0,8.01,4.59,5.37,0,*4D
1531206260.41,4344,18.88,74086.8,8.01,4.71,5.29,0,*4F
1531206261.61,4345,18.88,74086.0,8.03,4.81,5.41,0,*4D
1531206262.77,4346,18.88,74090.8,8.05,4.85,5.45,0,*48
1531206263.97,4347,18.88,74086.5,8.05,5.05,5.41,0,*44
1531206265.14,4348,18.88,74084.5,8.05,5.19,5.45,0,*42
1531206266.3,4349,18.88,74090.8,8.05,5.11,5.45,0,*4B
1531206267.54,4350,18.88,74086.8,8.07,5.27,5.55,0,*45
1531206268.73,4351,18.88,74084.8,8.07,5.33,5.67,0,*40
1531206269.91,4352,18.88,74090.8,8.09,5.41,5.71,0,*4F
1531206271.1,4353,18.88,74086.8,8.09,5.29,5.51,0,*42
1531206272.31,4354,18.88,74086.0,8.09,5.27,5.51,0,*4B
1531206273.48,4355,18.88,74086.3,8.09,5.29,5.59,0,*4C
1531206274.68,4356,18.88,74084.0,8.09,5.51,5.71,0,*4A
1531206275.9,4357,18.88,74086.3,8.11,5.63,5.93,0,*4F
1531206277.12,4358,18.88,74088.3,8.11,5.63,5.85,0,*47
1531206278.34,4359,18.88,74088.8,8.11,5.81,5.95,0,*4B
1531206279.55,4360,18.88,74088.8,8.15,5.85,6.13,0,*4C
1531206280.75,4361,18.88,74088.5,8.15,5.89,6.11,0,*43
1531206281.94,4362,18.88,74086.8,8.15,5.85,6.03,0,*4F
1531206283.17,4363,18.88,74090.3,8.19,5.89,6.17,0,*4B
1531206284.39,4364,18.88,74088.3,8.19,5.89,6.17,0,*4C
1531206285.61,4365,18.88,74086.0,8.21,5.73,6.07,0,*42
1531206286.8,4366,18.88,74088.5,8.23,5.59,5.81,0,*46
1531206288.01,4367,18.88,74090.0,8.21,5.71,5.85,0,*4B
1531206289.18,4368,18.88,74086.5,8.23,5.49,5.59,0,*4C
1531206290.34,4369,18.88,74086.3,8.23,5.49,5.49,0,*4C
1531206291.51,4370,18.88,74090.0,8.23,5.59,5.59,0,*44
1531206292.73,4371,18.88,74086.8,8.25,5.55,5.67,0,*42
1531206293.92,4372,18.88,74088.0,8.27,5.55,5.59,0,*4E
1531206295.13,4373,18.88,74088.8,8.25,5.45,5.55,0,*40
1531206296.37,4374,18.88,74084.0,8.25,5.51,5.77,0,*42
1531206297.6,4375,18.88,74090.0,8.25,5.55,5.77,0,*47
1531206298.77,4376,18.88,74086.5,8.27,5.71,5.99,0,*40
1531206299.96,4377,18.88,74086.0,8.27,5.71,5.81,0,*48
1531206301.16,4378,18.88,74090.3,8.29,5.49,5.67,0,*4A
1531206302.37,4379,18.88,74088.5,8.29,5.59,5.77,0,*4B
1531206303.59,4380,18.88,74086.3,8.29,5.55,5.71,0,*47
1531206304.81,4381,18.88,74090.8,8.29,5.67,5.89,0,*40
1531206306.0,4382,18.88,74086.8,8.31,5.63,5.81,0,*46
1531206307.19,4383,18.88,74086.3,8.31,5.71,5.85,0,*40
1531206308.41,4384,18.88,74088.5,8.33,5.63,5.73,0,*4F
1531206309.6,4385,18.88,74088.3,8.31,5.51,5.59,0,*45
1531206310.79,4386,18.88,74086.8,8.31,5.37,5.51,0,*4E
1531206311.99,4387,18.88,74086.8,8.33,5.49,5.59,0,*4C
1531206313.15,4388,18.88,74088.5,8.35,5.41,5.49,0,*4C
1531206314.35,4389,18.88,74088.3,8.33,5.59,5.59,0,*43
1531206315.52,4390,18.88,74084.8,8.35,5.67,5.63,0,*49
1531206316.72,4391,18.88,74086.3,8.35,5.73,5.67,0,*49
1531206317.9,4392,18.88,74088.5,8.35,5.63,5.63,0,*4F
1531206319.07,4393,18.88,74086.8,8.39,5.33,5.19,0,*4A
1531206320.27,4394,18.88,74086.8,8.41,5.41,5.23,0,*4E
1531206321.43,4395,18.88,74090.5,8.35,5.45,5.29,0,*42
1531206322.62,4396,18.88,74090.5,8.35,5.51,5.41,0,*4A
1531206323.78,4397,18.88,74090.5,8.39,5.49,5.29,0,*40
1531206325.0,4398,18.88,74086.3,8.41,5.55,5.33,0,*46
1531206326.17,4399,18.88,74090.8,8.39,5.59,5.29,0,*4F
1531206327.34,4400,18.88,74088.5,8.39,5.71,5.67,0,*48
1531206328.5,4401,18.88,74088.5,8.39,5.71,5.67,0,*49
1531206329.67,4402,18.88,74086.0,8.39,5.71,5.67,0,*4A
1531206330.9,4403,18.88,74084.5,8.39,5.93,5.81,0,*4F
1531206332.14,4404,18.88,74090.5,8.41,5.89,5.77,0,*45
1531206333.39,4405,18.88,74090.0,8.41,5.89,5.77,0,*44
1531206334.57,4406,18.88,74088.5,8.45,5.99,5.95,0,*4E
1531206335.77,4407,18.88,74084.5,8.47,5.99,6.07,0,*45
1531206336.97,4408,18.88,74084.8,8.45,5.89,5.95,0,*41
1531206338.15,4409,18.88,74088.5,8.45,5.95,5.95,0,*4D
1531206339.37,4410,18.88,74086.0,8.45,5.77,5.77,0,*45
1531206340.61,4411,18.88,74090.8,8.47,5.73,5.73,0,*46
1531206341.83,4412,18.88,74084.3,8.45,5.77,5.77,0,*47
1531206343.05,4413,18.88,74090.3,8.45,5.73,5.73,0,*46
1531206344.3,4414,18.88,74088.3,8.47,5.55,5.51,0,*47
1531206345.52,4415,18.88,74088.0,8.47,5.51,5.49,0,*4B
1531206346.76,4416,18.88,74086.8,8.47,5.51,5.51,0,*41
1531206347.96,4417,18.88,74086.0,8.47,5.63,5.67,0,*44
1531206349.14,4418,18.88,74088.8,8.45,5.49,5.37,0,*44
1531206350.31,4419,18.88,74086.5,8.45,5.41,5.41,0,*4C
1531206351.51,4420,18.88,74084.0,8.45,5.51,5.41,0,*47
1531206352.71,4421,18.88,74086.8,8.45,5.63,5.51,0,*46
1531206353.89,4422,18.88,74086.8,8.45,5.63,5.63,0,*44
1531206355.07,4423,18.88,74082.3,8.45,5.67,5.63,0,*41
1531206356.29,4424,18.88,74086.3,8.45,5.73,5.73,0,*42
1531206357.52,4425,18.88,74080.5,8.47,5.73,5.67,0,*44
1531206358.7,4426,18.88,74086.3,8.45,5.67,5.67,0,*40
1531206359.88,4427,18.88,74086.5,8.45,5.63,5.63,0,*41
1531206361.08,4428,18.88,74086.0,8.47,5.67,5.67,0,*4C
1531206362.26,4429,18.88,74080.5,8.45,5.37,5.19,0,*43
1531206363.45,4430,18.88,74084.0,8.45,5.19,5.15,0,*4B
1531206364.7,4431,18.88,74084.0,8.41,4.97,4.97,0,*42
1531206365.92,4432,18.88,74086.8,8.41,4.97,4.89,0,*4E
1531206367.12,4433,18.88,74080.8,8.39,5.19,5.01,0,*46
1531206368.32,4434,18.88,74084.0,8.39,4.89,4.79,0,*47
1531206369.49,4435,18.88,74084.8,8.35,4.89,4.85,0,*49
1531206370.66,4436,18.88,74080.8,8.35,4.85,4.85,0,*46
1531206371.86,4437,18.88,74084.3,8.33,4.89,4.81,0,*49
1531206373.11,4438,18.88,74086.0,8.33,5.01,5.05,0,*4A
1531206374.3,4439,18.88,74086.5,8.33,5.37,5.33,0,*4B
1531206375.46,4440,18.88,74082.8,8.31,5.37,5.33,0,*47
1531206376.63,4441,18.88,74086.0,8.31,5.15,5.15,0,*42
1531206377.8,4442,18.88,74086.3,8.31,5.23,5.11,0,*40
1531206379.06,4443,18.88,74084.3,8.29,5.01,4.97,0,*47
1531206380.25,4444,18.88,74086.5,8.31,5.27,5.23,0,*43
1531206381.45,4445,18.88,74086.8,8.29,5.11,5.07,0,*48
1531206382.63,4446,18.88,74082.5,8.31,5.23,5.19,0,*4C
1531206383.88,4447,18.88,74086.0,8.29,4.97,4.97,0,*4D
1531206385.06,4448,18.88,74084.3,8.31,5.23,5.23,0,*4B
1531206386.26,4449,18.88,74084.8,8.29,5.19,5.07,0,*4C
1531206387.44,4450,18.88,74086.0,8.27,5.23,5.23,0,*45
1531206388.65,4451,18.88,74088.5,8.25,5.29,5.27,0,*48
1531206389.85,4452,18.88,74086.8,8.27,5.11,5.01,0,*46
1531206391.09,4453,18.88,74084.0,8.25,5.27,5.27,0,*44
1531206392.29,4454,18.88,74084.5,8.25,5.19,5.19,0,*43
1531206393.51,4455,18.88,74086.8,8.25,5.29,5.27,0,*4C
1531206394.72,4456,18.88,74086.0,8.25,5.27,5.19,0,*4C
1531206395.96,4457,18.88,74086.0,8.25,5.27,5.27,0,*40
1531206397.2,4458,18.88,74084.5,8.25,5.27,5.27,0,*4F
1531206398.42,4459,18.88,74084.3,8.23,5.01,4.93,0,*42
1531206399.62,4460,18.88,74086.0,8.23,5.01,4.81,0,*4B
1531206400.87,4461,18.88,74086.3,8.21,5.05,4.93,0,*4F
1531206402.12,4462,18.88,74084.8,8.21,5.01,4.93,0,*48
1531206403.34,4463,18.88,74086.0,8.21,5.01,4.89,0,*42
1531206404.59,4464,18.88,74080.8,8.21,5.05,4.93,0,*4A
1531206405.84,4465,18.88,74084.0,8.21,5.01,4.93,0,*4F
1531206407.09,4466,18.88,74086.8,8.17,4.97,4.97,0,*43
1531206408.3,4467,18.88,74084.3,8.19,5.07,5.01,0,*4A
1531206409.48,4468,18.88,74086.0,8.19,5.19,5.11,0,*4B
1531206410.69,4469,18.88,74086.8,8.17,5.19,5.07,0,*43
1531206411.9,4470,18.88,74084.5,8.17,5.19,5.11,0,*4C
1531206413.12,4471,18.88,74086.0,8.17,4.97,4.89,0,*4A
1531206414.34,4472,18.88,74084.8,8.15,4.97,4.93,0,*40
1531206415.51,4473,18.88,74084.0,8.15,5.07,5.07,0,*45
1531206416.69,4474,18.88,74086.8,8.15,5.07,5.07,0,*42
1531206417.88,4475,18.88,74086.0,8.15,5.15,5.05,0,*42
1531206419.07,4476,18.88,74086.5,8.11,4.89,4.89,0,*44
1531206420.33,4477,18.88,74084.8,8.11,4.93,4.93,0,*45
1531206421.58,4478,18.88,74084.8,8.11,4.93,4.93,0,*4A
1531206422.83,4479,18.88,74084.8,8.11,5.05,5.01,0,*4F
1531206424.0,4480,18.88,74084.5,8.09,4.89,4.81,0,*4C
1531206425.25,4481,18.88,74086.0,8.11,5.05,5.05,0,*4C
1531206426.43,4482,18.88,74084.5,8.09,5.11,5.15,0,*42
1531206427.63,4483,18.88,74086.8,8.09,5.11,5.01,0,*46
1531206428.89,4484,18.88,74088.5,8.07,5.01,5.01,0,*4E
1531206430.07,4485,18.88,74084.8,8.09,5.11,5.11,0,*41
1531206431.24,4486,18.88,74090.3,8.09,5.11,5.15,0,*46
1531206432.44,4487,18.88,74088.8,8.07,5.15,5.11,0,*49
1531206433.65,4488,18.88,74086.8,8.07,4.97,4.89,0,*4D
1531206434.87,4489,18.88,74086.5,8.07,5.07,4.97,0,*4B
1531206436.07,4490,18.88,74084.3,8.05,5.07,5.05,0,*4B
1531206437.3,4491,18.88,74090.0,8.03,5.19,5.05,0,*43
1531206438.52,4492,18.88,74090.0,8.03,4.93,4.81,0,*4E
1531206439.75,4493,18.88,74088.3,8.03,4.85,4.75,0,*43
1531206440.98,4494,18.88,74086.8,8.03,4.81,4.71,0,*44
1531206442.23,4495,18.88,74086.8,8.03,4.97,4.93,0,*4E
1531206443.44,4496,18.88,74088.3,8.03,5.19,5.19,0,*49
1531206444.67,4497,18.88,74086.5,8.03,5.07,4.97,0,*40
1531206445.86,4498,18.88,74090.5,8.01,5.01,4.89,0,*44
1531206447.06,4499,18.88,74086.8,8.01,4.93,4.89,0,*4F
1531206448.29,4500,18.88,74088.8,8.01,4.93,4.93,0,*45
1531206449.52,4501,18.88,74086.5,7.99,5.11,5.01,0,*4B
1531206450.69,4502,18.88,74088.5,8.01,5.15,5.15,0,*47
1531206451.89,4503,18.88,74084.3,7.99,5.15,5.15,0,*48
1531206453.11,4504,18.88,74088.3,8.01,5.27,5.27,0,*41
1531206454.33,4505,18.88,74090.0,7.99,5.05,5.11,0,*4B
1531206455.54,4506,18.88,74086.3,7.99,5.11,5.11,0,*4D
1531206456.79,4507,18.88,74088.5,7.99,5.01,5.01,0,*4C
1531206457.99,4508,18.88,74090.8,7.99,5.11,5.11,0,*43
1531206459.25,4509,18.88,74088.0,7.99,5.05,5.01,0,*46
1531206460.43,4510,18.88,74086.8,7.97,5.15,5.23,0,*41
1531206461.63,4511,18.88,74088.0,7.97,4.97,4.89,0,*4A
1531206462.86,4512,18.88,74088.3,7.97,4.97,4.97,0,*46
1531206464.05,4513,18.88,74086.8,7.97,5.23,5.23,0,*47
1531206465.25,4514,18.88,74086.5,7.95,5.11,5.19,0,*4A
1531206466.46,4515,18.88,74090.5,7.95,5.11,5.11,0,*43
1531206467.68,4516,18.88,74090.3,7.95,5.07,4.97,0,*48
1531206468.87,4517,18.88,74090.3,7.93,5.11,5.19,0,*4F
1531206470.05,4518,18.88,74084.5,7.93,5.19,5.11,0,*40
1531206471.24,4519,18.88,74086.0,7.93,5.11,5.23,0,*48
1531206472.42,4520,18.88,74088.5,7.93,5.19,5.19,0,*43
1531206473.61,4521,18.88,74084.3,7.93,5.19,5.11,0,*4A
1531206474.84,4522,18.88,74084.8,7.93,5.01,4.97,0,*4F
1531206476.04,4523,18.88,74086.0,7.89,5.15,5.05,0,*4A
1531206477.24,4524,18.88,74086.8,7.89,5.15,5.05,0,*4D
1531206478.42,4525,18.88,74090.0,7.89,5.07,5.07,0,*4D
1531206479.6,4526,18.88,74090.0,7.93,5.07,5.07,0,*45
1531206480.83,4527,18.88,74088.3,7.89,4.97,4.93,0,*4B
1531206482.1,4528,18.88,74086.8,7.87,5.01,5.01,0,*4E
1531206483.32,4529,18.88,74088.8,7.87,4.93,4.89,0,*44
1531206484.59,4530,18.88,74088.3,7.87,5.01,5.01,0,*47
1531206485.84,4531,18.88,74086.3,7.87,5.05,5.05,0,*46
1531206487.11,4532,18.88,74090.5,7.87,5.05,5.01,0,*41
1531206488.34,4533,18.88,74084.5,7.87,5.11,5.01,0,*45
1531206489.58,4534,18.88,74088.5,7.85,4.93,5.01,0,*4B
1531206490.82,4535,18.88,74086.8,7.85,4.93,5.01,0,*4A
1531206492.02,4536,18.88,74086.8,7.85,5.01,4.89,0,*42
1531206493.25,4537,18.88,74084.5,7.85,5.01,5.01,0,*42
1531206494.49,4538,18.88,74086.8,7.85,5.01,5.01,0,*4D
1531206495.73,4539,18.88,74086.0,7.85,5.05,5.01,0,*48
1531206496.91,4540,18.88,74088.3,7.85,5.11,5.11,0,*42
1531206498.09,4541,18.88,74088.3,7.81,4.85,4.85,0,*47
1531206499.31,4542,18.88,74084.0,7.83,4.85,4.97,0,*45
1531206500.54,4543,18.88,74086.0,7.83,5.07,5.01,0,*41
1531206501.78,4544,18.88,74080.3,7.81,5.01,5.01,0,*42
1531206503.0,4545,18.88,74088.3,7.83,4.97,4.85,0,*42
1531206504.23,4546,18.88,74088.8,7.83,4.89,4.97,0,*4D
1531206505.42,4547,18.88,74084.8,7.79,4.81,4.79,0,*41
1531206506.65,4548,18.88,74088.8,7.79,4.93,4.93,0,*49
1531206507.84,4549,18.88,74086.5,7.79,4.93,4.81,0,*4B
1531206509.04,4550,18.88,74090.5,7.79,4.81,4.71,0,*4F
1531206510.26,4551,18.88,74086.8,7.79,4.79,4.71,0,*49
1531206511.49,4552,18.88,74090.5,7.77,4.67,4.53,0,*4B
1531206512.74,4553,18.88,74088.3,7.77,4.79,4.75,0,*41
1531206513.99,4554,18.88,74090.5,7.77,4.79,4.67,0,*45
1531206515.22,4555,18.88,74088.8,7.77,4.81,4.79,0,*4C
1531206516.44,4556,18.88,74088.8,7.77,4.67,4.57,0,*4B
1531206517.67,4557,18.88,74086.3,7.77,4.89,4.79,0,*46
1531206518.86,4558,18.88,74088.0,7.75,4.93,4.89,0,*4F
1531206520.09,4559,18.88,74088.8,7.75,4.79,4.75,0,*49
1531206521.34,4560,18.88,74090.8,7.73,4.97,5.01,0,*47
1531206522.57,4561,18.88,74088.5,7.75,5.01,5.01,0,*4E
1531206523.76,4562,18.88,74090.0,7.73,4.89,4.85,0,*47
1531206524.99,4563,18.88,74088.0,7.73,4.85,4.75,0,*45
1531206526.19,4564,18.88,74090.8,7.75,4.85,4.71,0,*40
1531206527.43,4565,18.88,74088.5,7.73,4.75,4.63,0,*4B
1531206528.65,4566,18.88,74088.0,7.71,4.75,4.63,0,*4A
1531206529.85,4567,18.88,74088.8,7.71,4.85,4.71,0,*47
1531206531.05,4568,18.88,74090.5,7.71,4.85,4.71,0,*48
1531206532.26,4569,18.88,74090.0,7.67,4.71,4.57,0,*41
1531206533.45,4570,18.88,74092.5,7.67,4.81,4.67,0,*45
1531206534.67,4571,18.88,74088.8,7.67,4.75,4.59,0,*42
1531206535.91,4572,18.88,74088.0,7.73,4.75,4.59,0,*44